Regional Weather Roundup
Issued by NWS Charleston, SC

Current Version | Previous Version | Graphics & Text | Print | Product List | Glossary On
Versions: 1 2 3 4 5 6 7 8 9 10 11 12 13 14 15 16 17 18 19 20 21 22 23 24 25 26 27 28 29 30 31 32 33 34 35 36 37 38 39 40 41 42 43 44 45 46 47 48 49 50
000 ASUS42 KCHS 181125 RWRCHS REGIONAL WEATHER ROUNDUP NATIONAL WEATHER SERVICE CHARLESTON SC 600 AM EST THU DEC 18 2014 NOTE: "FAIR" INDICATES FEW OR NO CLOUDS BELOW 12,000 FEET WITH NO SIGNIFICANT WEATHER AND/OR OBSTRUCTIONS TO VISIBILITY. NOT ALL STATIONS ARE QUALITY CONTROLLED BY THE NATIONAL WEATHER SERVICE. USE DATA WITH CAUTION...ESPECIALLY DEWPOINT OBSERVATIONS. SCZ027-030-031-034>040-042>050-181200- ...SOUTHEAST SOUTH CAROLINA... CITY SKY/WX TMP DP RH WIND PRES REMARKS N CHARLESTON MOCLDY 40 39 97 CALM 30.13R WATERFRONT PRK N/A 46 N/A N/A CALM N/A MOUNT PLEASANT FAIR 39 39 100 CALM 30.13R PINOPOLIS N/A 46 43 87 MISG 30.03R MONCKS CORNER FAIR 37 36 93 CALM 30.13R FOG SUMMERVILLE NOT AVBL BEAUFORT MCAS FAIR 42 40 92 CALM 30.12R BEAUFORT ARPT FAIR 41 41 100 W5 30.12R HILTON HEAD IS NOT AVBL WALTERBORO PTSUNNY 36 N/A N/A CALM 30.14R ALLENDALE FAIR 37 37 100 CALM 30.13R ...SOUTHERN MIDLANDS AND PEE DEE... CITY SKY/WX TMP DP RH WIND PRES REMARKS GEORGETOWN NOT AVBL KINGSTREE NOT AVBL ORANGEBURG PTCLDY 35 33 92 CALM 30.13R BARNWELL N/A 34 34 100 CALM 30.13S AIKEN FAIR 36 36 100 CALM 30.14S MANNING NOT AVBL COLUMBIA MOCLDY 34 31 88 CALM 30.12R SUMTER MOCLDY 36 33 90 CALM 30.12R FLORENCE CLEAR 37 35 92 CALM 30.13R MYRTLE BEACH PTCLDY 39 36 87 CALM 30.12R N MYRTLE BEACH PTCLDY 36 35 96 CALM 30.12R FOG $$ GAZ063-065-086>088-099>101-113>116-118-119-134>141-150-181200- ...SOUTHEAST GEORGIA... CITY SKY/WX TMP DP RH WIND PRES REMARKS SAVANNAH ARPT MOCLDY 41 36 82 W5 30.13R HUNTER AAF PTCLDY 38 37 96 W3 30.11R FORT STEWART MOCLDY 40 37 89 CALM 30.12R STATESBORO PTCLDY 37 37 100 CALM 30.13R SYLVANIA MOSUNNY 37 37 100 CALM 30.14R CLAXTON FAIR 36 36 100 CALM 30.14R ...CSRA...CENTRAL AND FAR SOUTHEAST GEORGIA... CITY SKY/WX TMP DP RH WIND PRES REMARKS THOMSON MOCLDY 35 35 100 CALM 30.16S AUGUSTA-BUSH MOCLDY 34 32 92 W3 30.13R AUGUSTA-DANIEL MOCLDY 41 37 86 CALM 30.13R SWAINSBORO FAIR 37 37 100 NW3 30.14R VIDALIA CLOUDY 41 37 87 CALM 30.13R EASTMAN FAIR 36 36 100 CALM 30.17S HAZLEHURST FAIR 42 42 100 CALM 30.12S ALMA CLOUDY 40 38 93 CALM 30.13S WAYCROSS CLOUDY 46 44 93 CALM 30.15R JESUP FAIR 41 39 93 CALM 30.13S BAXLEY FAIR 41 39 93 CALM 30.12S BRUNSWICK MOCLDY 43 39 87 CALM 30.14S SAINT SIMONS MOCLDY 46 41 82 NW5 30.13R $$ SCZ027-028-034-036>038-045-046-048>050-GAZ119-141-181200- ...LAKE AND SUPPLEMENTAL COASTAL OBSERVATIONS... STATION/POSITION TIME TEMP WIND PRES WAVE SWELL AIR SEA DIR/SP/G HT/PER HT/PER/DIR (UTC) (F) (DEG/KT/KT) (MB) (FT/S) (FT/S/D) UPR LAKE MARION NOT AVBL WINYAH BAY 1100 42 310/ 5 1019.0R LAKE MURRAY 1100 42 CALM / 3 1019.3S ACE BASIN NERRS 1100 40 CALM 1019.0S FORT PULASKI 1100 46 57 240/ 2/ 4 1020.2S SAPELO ISLAND 1100 45 330/ 3 1020.0S $$ ANZ835-935-AMZ111-154-330-350-352-354-370-450-454-472-181200- ...C-MAN AND BUOY OBSERVATIONS... STATION/POSITION TIME TEMP WIND PRES WAVE SWELL AIR SEA DIR/SP/G HT/PER HT/PER/DIR (UTC) (F) (DEG/KT/KT) (MB) (FT/S) (FT/S/D) BUOY 41004 1100 60 73 300/ 8/ 12 1019.0R 2/11 2/11 BUOY 41008 1100 53 57 330/ 10/ 12 1019.9R 1/11 FOLLY BEACH CMAN 1100 46 300/ 4/ 6 1020.3R CAPERS NEARSHORE 1000 52 270/ 8/ 8 N/A FRIPP NEARSHORE NOT AVBL STATION/POSITION TIME TEMP WIND PRES WAVE SWELL AIR SEA DIR/SP/G HT/PER HT/PER/DIR (UTC) (F) (DEG/KT/KT) (MB) (FT/S) (FT/S/D) 5E ST. MARYS GA 1100 60 N/A 1/11 FRYING PAN BUOY 1100 57 66 310/ 10/ 12 1019.9R 2/11 2/100/11 BUOY 41025 1100 51 1018.6R 3/ 4 CAPE LOOKOUT NC 1100 47 350/ 9/ 10 1019.3R BUOY 41002 1050 69 72 280/ 12/ 14 1018.3R 4/ 7 3/260/ 7 BUOY 41010 1100 71 76 280/ 12/ 16 1019.1S 2/10 2/ 90/10 ST AUGUSTINE FL 1100 47 280/ 7/ 8 1021.0R $$

USA.gov is the U.S. government's official web portal to all federal, state and local government web resources and services.